Regional Weather Roundup
Issued by NWS Wakefield, VA

Home | Current Version | Previous Version | Graphics & Text | Print | Product List | Glossary On
Versions: 1 2 3 4 5 6 7 8 9 10 11 12 13 14 15 16 17 18 19 20 21 22 23 24 25 26 27 28
000
ASUS41 KAKQ 291610
RWRAKQ

REGIONAL WEATHER ROUNDUP
NATIONAL WEATHER SERVICE WAKEFIELD VA
1200 PM EDT WED OCT 29 2014

Note: "fair" indicates few or no clouds below 12,000 feet with no
significant weather and/or obstructions to visibility. * = Denotes
station may not report precipitation (e.g., rain,snow,etc.),
thunder or fog.

VAZ042-051-052>054-056-291700-
NORTHERN VIRGINIA

CITY           SKY/WX    TMP DP  RH WIND       PRES   REMARKS
WASH NATIONAL  PTSUNNY   67  47  48 NW21G26   29.97R
DULLES         PTSUNNY   59  46  62 NW16      29.98R
FORT BELVOIR   MOSUNNY   68  51  53 NW15G22   29.96R
QUANTICO       MOSUNNY   66  53  63 NE8       29.96R
FREDERICKSBRG* MOSUNNY   71  58  64 NE3       29.93F
STAFFORD*      SUNNY     70  52  52 N3        29.98F
WARRENTON      CLOUDY    65  56  75 N10       29.95S
CULPEPER*      LGT RAIN  64  54  68 N12       29.96R
MANASSAS*      CLOUDY    64  50  59 N14       29.97R
LEESBURG*      LGT RAIN  55  52  88 NW14      30.00S
WINCHESTER     DRIZZLE   55  45  67 CALM      30.00S
FRONT ROYAL*   CLOUDY    54  52  94 NE3       29.99S
LURAY*         LGT RAIN  59  57  94 CALM      30.00R
$$

VAZ048-049-060>072-079>083-291700-
CENTRAL AND SOUTH CENTRAL VIRGINIA...AND NORTH CENTRAL NORTH CAROLINA

CITY           SKY/WX    TMP DP  RH WIND       PRES   REMARKS
RICHMOND       PTSUNNY   73  58  59 SW12      29.93F
CHESTERFIELD*  CLOUDY    70  52  52 SW9       29.95F
PETERSBURG*    CLOUDY    72  56  57 SW8       29.95F
HANOVER        PTSUNNY   71  58  63 SW8       29.95S
TAPPAHANNOCK*  PTSUNNY   73  54  49 S9        29.94S
CHARLOTTSVILLE CLOUDY    64  56  75 N3        29.96R
ORANGE*        CLOUDY    68  55  64 N6        29.97R
LOUISA*        CLOUDY    70  57  64 W5        29.93S
FARMVILLE*     CLOUDY    72  55  56 SW9       29.94S
CREWE*         CLOUDY    69  57  65 SW6       29.96S
FORT PICKETT*  CLOUDY    69  58  69 SW13G18   29.97S
LUNENBURG*     CLOUDY    69  59  70 SW7       29.97S
SOUTH HILL*    CLOUDY    73  61  64 SW12G18   30.03S
LAWRENCEVILLE* CLOUDY    71  60  69 SW10G17   29.97F
ROANOKE RAPIDS CLOUDY    70  59  68 SW13      29.99F
RALEIGH        PTSUNNY   71  57  61 SW13      30.01F
$$

VAZ088>098-291700-
SOUTHEAST VIRGINIA

CITY           SKY/WX    TMP DP  RH WIND       PRES   REMARKS
NORFOLK        PTSUNNY   76  59  55 SW14      29.96F
VIRGINIA BEACH PTSUNNY   77  60  55 S14G21    29.96F
NORFOLK NAVAL  PTSUNNY   76  59  55 SW16G23   29.97F
WEST POINT*    CLOUDY    73  56  55 S10       29.95F
NEWPORT NEWS   CLOUDY    76  59  55 SW13      29.95F
LANGLEY AFB    CLOUDY    73  60  63 SW15      29.96F
FORT EUSTIS    CLOUDY    72  58  60 SW8       29.94F
WILLIAMSBURG*  CLOUDY    73  61  64 SW7       29.96F
HR EXEC AP*    PTSUNNY   75  61  60 SW15      29.99F
FRANKLIN*      PTSUNNY   73  59  60 SW7G17    29.98F
WAKEFIELD      CLOUDY    73  59  61 VRB7      29.96F
$$

VAZ020-022-025-037-045-291700-
WEST CENTRAL AND SOUTHWEST VIRGINIA

CITY           SKY/WX    TMP DP  RH WIND       PRES   REMARKS
STAUNTON*      LGT RAIN  58  54  88 N5        30.02S
HOT SPRINGS VA LGT RAIN  46  46 100 W16       30.01R VSB<1/4
LYNCHBURG      CLOUDY    66  53  63 W7G17     29.99F
DANVILLE       PTSUNNY   66  56  70 VRB5      30.00F
SOUTH BOSTON*  NOT AVBL
MARTINSVILLE   CLOUDY    68  56  67 CALM      30.02F
ROANOKE        CLOUDY    59  46  62 NW9       30.04F
BLACKSBURG     DRIZZLE   54  52  94 W9        30.07S
DUBLIN*        LGT RAIN  53  49  87 W5        30.07S
MARION*        CLOUDY    52  46  80 W9        30.10S
HILLSVILLE*    LGT RAIN  51  48  90 CALM      30.06R
RICHLANDS*     CLOUDY    50  45  81 W3        30.11R
WISE*          CLOUDY    48  46  93 W5        30.12S
ABINGDON*      CLOUDY    52  48  87 N6        30.10S
$$

MDZ021>025-VAZ099-100-291700-
SOUTHERN MARYLAND AND THE DELMARVA PENINSULA

CITY           SKY/WX    TMP DP  RH WIND       PRES   REMARKS
PATUXENT RIVER PTSUNNY   72  58  61 W7        29.92F
BAY BRIDGE APT   N/A     66  52  59 N9        29.93S
LEONARDTOWN    PTSUNNY   70  55  60 W9        29.94F
DOVER          PTSUNNY   70  61  73 W9        29.89F
GEORGETOWN     CLOUDY    71  59  65 W10       29.92S
EASTON         PTSUNNY   72  59  64 NW8       29.95F
CAMBRIDGE      PTSUNNY   72  57  60 W5        29.92F
SALISBURY      CLOUDY    73  60  63 W13       29.93S
OCEAN CITY     PTSUNNY   71  61  70 S7        29.92F
WALLOPS ISLAND PTSUNNY  N/A N/A N/A MISG      29.94F
ACCOMACK*      PTSUNNY   73  54  49 SW14G20   29.94F
$$

NCZ012>017-030>032-291700-
EASTERN NORTH CAROLINA

CITY           SKY/WX    TMP DP  RH WIND       PRES   REMARKS
ELIZABETH CITY PTSUNNY   76  61  59 SW12      30.00F
AHOSKIE*       NOT AVBL
EDENTON*       PTSUNNY   73  62  69 SW8       30.01F
CURRITUCK*     PTSUNNY   73  59  59 SW7       30.00F
KILL DEVIL HLS PTSUNNY   75  62  65 SW9       30.00F
MANTEO         PTSUNNY   74  62  67 SW9       30.02F
CAPE HATTERAS  PTSUNNY   74  67  78 SW12      30.05F
TARBORO*       CLOUDY    75  61  60 SW5       30.01F
GOLDSBORO      CLOUDY    75  66  73 SW15      30.01F
WASHINGTON     PTSUNNY   75  63  66 SW7       30.03F
GREENVILLE     CLOUDY    77  63  61 SW10      30.03F
NEW BERN       PTSUNNY   78  63  59 SW12G17   30.04F
WILMINGTON     PTSUNNY   77  63  61 W13       30.05F
$$

VAZ048-291700-
ELSEWHERE

CITY           SKY/WX    TMP DP  RH WIND       PRES   REMARKS
HARRISBURG PA  LGT RAIN  55  50  83 W6        29.97S
BALTIMORE      PTSUNNY   67  48  50 NW13G20   29.94S
ANNAPOLIS      MOSUNNY   67  51  56 NW10      29.94R
ANDREWS AFB    MOSUNNY   68  49  52 NW16      29.95R
WILMINGTON DE  PTSUNNY   67  53  61 NW15      29.93S
PHILADELPHIA   PTSUNNY   69  54  58 W12       29.91S
WILDWOOD NJ*   CLOUDY    70  57  64 W9        29.92F
ATLANTIC CITY  CLOUDY    70  59  68 W10       29.89F
HENDERSON NC   PTSUNNY   70  56  63 SW12G17   29.99F
GREENSBORO     PTSUNNY   71  55  56 NW12      30.01F
ROCKY MOUNT    CLOUDY    73  59  61 SW13      30.01F
FAYETTEVILLE   PTSUNNY   75  57  53 SW14      30.03F
CHARLOTTE      PTSUNNY   76  55  48 W13       30.03F
$$

VAZ100-291700-
MARINE

STATION/POSITION TIME  TEMP    WIND        PRES    WAVE   SWELL
                       AIR SEA DIR/SP/G            HT/PER HT/PER
                 (UTC) (F)     (DEG/KT/KT) (MB)    (FT/S) (FT/S)
44066 TX TWR #4  1600   67 66  240/ 16/ 17 1012.5F   5/ 6   2/11
CAPE MAY NJ      1600   66 65  230/  7/  9 1012.5S
LEWES DE         1600   71 61  260/ 10/ 14 1012.6F
15NM E FENWICK I 1600   66 64              1012.7F   3/ 5
OCEAN-CITY-INLET 1600          230/ 14/ 17 1012.9F
WACHAPREAGUE VA  1600   70 63  200/ 12/ 16 1014.1F
THOMAS POINT MD  1600   65 62  350/ 10/ 11 1014.6R
GOOSES REEF MD   1600   66     350/  2/  4 1014.1S
COVE POINT MD    1600   69     290/  6/  7 1013.3F
SOLOMONS ISLAND  1600      63                N/A
BISHOPS HEAD MD  1600   65 62  230/  2/  2 1013.2F
PINEY POINT MD   1600          360/  8/  8   N/A
POTOMAC MD       1600   66     320/  4/  6 1012.8F
CAMBRIDGE MD     1600   68 60  250/  7/ 10 1013.1S
LEWISETTA VA     1600   69 62  270/  9/ 10 1013.0S
RAPPAHANNOCK LGT 1600          180/ 15/ 16 1014.3F
STINGRAY PT      1600   68     220/ 12/ 14 1014.3F
YORK RVR RNG VA  1600   69     240/ 11/ 13 1013.8F
YORKTOWN VA      1600          220/ 12/ 16 1013.7F
JAMESTOWN VA     1600   72     240/ 12/ 16   N/A
DOMINION TERM VA 1600   67     220/  8/  9 1014.9S
KIPTOPEKE VA     1600          190/  9/ 10   N/A
CHES BAY BRIDGE  1600          200/ 12/ 15 1014.1F
CHESAPEAKE LGHT  1500   66     210/ 18/ 19 1015.8F
WILLOUBY STN VA  1600          230/ 12/ 14 1013.2F
S CRANEY ISL VA  1600          200/  7/ 11 1014.5F
CAPE HENRY BUOY  1600      65                N/A     2/ 4
1ST LANDING BUOY 1600   70     210/ 10/ 14 1014.3F
CAPE CHARLES BUO 1600      66                N/A     2/ 4
64NM E OF VA BCH 1600   69 67  240/ 17/ 19 1015.2F   3/ 4
DUCK PIER NC     1600   71 68  220/ 10/ 12 1015.5F
44100 DUCK FRF   1600      67                N/A     2/ 5
OREGON INLET NC  1600   68 67  190/ 10/ 11 1016.7F
HATTERAS NC      1600          230/ 10/ 15 1018.0F
DIAMOND SHLS NC  1600   76     250/ 17/ 19 1017.4F   4/ 5
CAPE LOOKOUT NC  1500   73     230/  7/  9 1018.3F
$$



USA.gov is the U.S. government's official web portal to all federal, state and local government web resources and services.